Date,TemperatureHighF,TemperatureAvgF,TemperatureLowF,DewpointHighF,DewpointAvgF,DewpointLowF,HumidityHigh,HumidityAvg,HumidityLow,PressureMaxIn,PressureMinIn,WindSpeedMaxMPH,WindSpeedAvgMPH,GustSpeedMaxMPH,PrecipitationSumIn
2013-1-1,30,23,17,-100,-100,-100,0,0,100,0.00,40.00,0,-999,0,0.00
2013-1-2,17,12,8,-100,-100,-100,0,0,100,0.00,40.00,0,-999,0,0.00
2013-1-3,17,14,9,-100,-100,-100,0,0,100,0.00,40.00,0,-999,0,0.01
2013-1-4,35,31,18,-100,-100,-100,0,0,100,0.00,40.00,0,-999,0,0.01
2013-1-5,29,24,21,-100,-100,-100,0,0,100,0.00,40.00,0,-999,0,0.01
2013-1-6,31,30,28,-100,-100,-100,0,0,100,0.00,40.00,0,-999,0,0.01
2013-1-7,36,34,30,-100,-100,-100,0,0,100,0.00,40.00,0,-999,0,0.04
2013-1-8,37,34,29,-100,-100,-100,0,0,100,0.00,40.00,0,-999,0,0.04
2013-1-9,36,30,22,-100,-100,-100,0,0,100,0.00,40.00,0,-999,0,0.03
2013-1-10,27,22,18,-100,-100,-100,0,0,100,0.00,40.00,0,-999,0,0.01
2013-1-11,23,17,13,-100,-100,-100,0,0,100,0.00,40.00,0,-999,0,0.01
2013-1-12,22,16,11,-100,-100,-100,0,0,100,0.00,40.00,0,-999,0,0.00
2013-1-13,27,18,13,-100,-100,-100,0,0,100,0.00,40.00,0,-999,0,0.00
2013-1-14,36,26,21,-100,-100,-100,0,0,100,0.00,40.00,0,-999,0,0.00
2013-1-15,45,36,27,-100,-100,-100,0,0,100,0.00,40.00,0,-999,0,0.00
2013-1-16,49,40,35,-100,-100,-100,0,0,100,0.00,40.00,0,-999,0,0.00
2013-1-17,52,40,35,-100,-100,-100,0,0,100,0.00,40.00,0,-999,0,0.00
2013-1-18,49,42,37,-100,-100,-100,0,0,100,0.00,40.00,0,-999,0,0.00
2013-1-19,53,43,37,-100,-100,-100,0,0,100,0.00,40.00,0,-999,0,0.01
2013-1-20,48,40,35,-100,-100,-100,0,0,100,0.00,40.00,0,-999,0,0.01
2013-1-21,45,37,33,-100,-100,-100,0,0,100,0.00,40.00,0,-999,0,0.00
2013-1-22,36,31,25,-100,-100,-100,0,0,100,0.00,40.00,0,-999,0,0.00
2013-1-23,33,27,23,-100,-100,-100,0,0,100,0.00,40.00,0,-999,0,0.01
2013-1-24,37,31,23,-100,-100,-100,0,0,100,0.00,40.00,0,-999,0,0.01
2013-1-25,38,35,29,-100,-100,-100,0,0,100,0.00,40.00,0,-999,0,0.01
2013-1-26,31,29,27,-100,-100,-100,0,0,100,0.00,40.00,0,-999,0,0.01
2013-1-27,29,28,26,-100,-100,-100,0,0,100,0.00,40.00,0,-999,0,0.01
2013-1-28,30,28,26,-100,-100,-100,0,0,100,0.00,40.00,0,-999,0,0.01
2013-1-29,35,32,29,-100,-100,-100,0,0,100,0.00,40.00,0,-999,0,0.01
2013-1-30,36,35,33,-100,-100,-100,0,0,100,0.00,40.00,0,-999,0,0.01
2013-1-31,36,35,34,-100,-100,-100,0,0,100,0.00,40.00,0,-999,0,0.00